This is the latest recevied weather packets stored in our database for station/object LRSV. If no packets are shown the sender has not sent any weather packets the latest 10 day(s).
| Time | Temp. | Humidity | Pressure | Rain* | Wind** | Luminosity | Snow |
|---|---|---|---|---|---|---|---|
| 1778058200 | 23.89° C | 34% | 1013 hPa | - | - | - | - |
| 1778057300 | 22.78° C | 38% | 1013 hPa | - | - | - | - |
| 1778056400 | 22.78° C | 38% | 1013 hPa | - | - | - | - |
| 1778055497 | 22.22° C | 38% | 1013 hPa | - | - | - | - |
| 1778054600 | 22.22° C | 38% | 1013 hPa | - | - | - | - |
| 1778053701 | 21.11° C | 40% | 1013 hPa | - | - | - | - |
| 1778052800 | 21.11° C | 40% | 1013 hPa | - | - | - | - |
| 1778051900 | 18.89° C | 43% | 1013 hPa | - | - | - | - |
| 1778051000 | 18.89° C | 43% | 1013 hPa | - | - | - | - |
| 1778050100 | 17.22° C | 49% | 1013 hPa | - | - | - | - |
| 1778049200 | 17.22° C | 49% | 1013 hPa | - | - | - | - |
| 1778048301 | 17.22° C | 52% | 1013 hPa | - | - | - | - |
| 1778047402 | 17.22° C | 52% | 1013 hPa | - | - | - | - |
| 1778046501 | 16.11° C | 55% | 1013 hPa | - | - | - | - |
| 1778045608 | 16.11° C | 55% | 1013 hPa | - | - | - | - |
| 1778044701 | 15° C | 51% | 1013 hPa | - | - | - | - |
| 1778043814 | 15° C | 51% | 1013 hPa | - | - | - | - |
| 1778042916 | 12.78° C | 55% | 1013 hPa | - | - | - | - |
| 1778042004 | 12.78° C | 55% | 1013 hPa | - | - | - | - |
| 1778041101 | 12.22° C | 58% | 1012 hPa | - | - | - | - |
| 1778040200 | 12.22° C | 58% | 1012 hPa | - | - | - | - |
| 1778039301 | 11.11° C | 62% | 1012 hPa | - | - | - | - |
| 1778038400 | 11.11° C | 62% | 1012 hPa | - | - | - | - |
| 1778037500 | 12.78° C | 51% | 1012 hPa | - | - | - | - |
| 1778036600 | 12.78° C | 51% | 1012 hPa | - | - | - | - |
* Rain since midnight (hover to see other rain measurements)
** Current wind speed in m/s (hover to see current wind gust speed)